Weather in Krasnaya Polyana

Russia / Krasnodar Krai     46°39′30″N   39°22′45″E
temp.,
°C
wind,
m/s
gust,
m/s
humid.,
%
clouds,
%
prec.,
mm/h
press.,
hPa
HPBL,
m
6 may, thu
thu600:00+10ese33625 0.0 101734
03:00+9ese376881 0.0 1016143
06:00+9ese41072100 0.0 1015214
09:00+15ese61158100 0.0 1014667
12:00+18se675097 0.0 10131270
15:00+20se4548100 0.0 10121463
18:00+19s2360100 0.0 1012111
21:00+15sse1166100 0.0 101311
7 may, fri
fri700:00+13wsw337648 0.0 101335
03:00+11w34776 0.0 101353
06:00+10w3473100 0.0 101587
09:00+16wsw345960 0.0 1016522
12:00+20wnw34435 0.0 10161419
15:00+21wnw454739 0.0 10162076
18:00+19sw356221 0.1 1016343
21:00+13sw337313 0.1 101730
8 may, sat
sat800:00+12ssw2267100 0.0 101713
03:00+12sse3364100 0.0 101631
06:00+12s3683100 0.0 1016132
09:00+17s4666100 0.0 1015433
12:00+21s5658100 0.0 10141050
15:00+22s5651100 0.0 10131467
18:00+21ssw34610 0.0 1012221
21:00+17sse1270100 0.0 101111
9 may, sun
sun900:00+15ne1176100 0.0 101011
03:00+13nne358495 0.0 100875
06:00+11n5896100 5.2 1009418
09:00+10n5695100 14.4 1009271
12:00+5nnw101593100 2.7 1013660
15:00+6nnw91695100 5.6 10171208
18:00+8nw8147988 2.2 10191311
21:00+7w3688100 2.4 1022130
10 may, mon
mon1000:00+7w499073 0.3 1022174
03:00+7wnw51285100 0.3 1022347
06:00+7wnw51285100 0.0 1022390
09:00+11nw81164100 0.0 10211496
12:00+11wnw71268100 0.8 10201699
15:00+7wnw81390100 3.0 10201181
18:00+7wnw6992100 0.9 1018971
21:00+7w4894100 1.4 1016451